{"data":{"norad_id":43913,"intl_designator":"2018-112E","name":"YUNHAI-2 01E","alt_names":[],"object_type":"PAYLOAD","status":"ACTIVE","operator":null,"country":"PRC","launch_date":"2018-12-29","launch_site_code":"JSC","launch_vehicle":null,"mission":null,"orbit_class":"UNKNOWN","rcs_meters":null,"size_class":null,"mass_kg":null,"dimensions":null,"purposes":[],"wikipedia_slug":null,"has_3d_model":false,"image_url":null,"decayed_at":null,"tle_current":{"epoch":"2026-05-25T03:27:49.858848Z","epoch_age_seconds":66544,"freshness":"FRESH","line1":"1 43913U 18112E   26145.14432707  .00000051  00000+0  83344-4 0  9990","line2":"2 43913  50.0071 264.5611 0005052 281.6723  78.3625 14.29000827385865","mean_motion":14.29000827,"eccentricity":0.0005052,"inclination_deg":50.0071,"raan_deg":264.5611,"arg_perigee_deg":281.6723,"mean_anomaly_deg":78.3625,"bstar":8.3344e-5,"rev_number":38586,"period_min":100.76971075119,"perigee_km":791.44869786671,"apogee_km":798.69650884994,"semimajor_km":7173.2096033583,"source":"CELESTRAK","updated_at":"2026-05-25T13:37:55.928790Z"}}}